カタログに戻る

ELEKTRO-L 5

運用中気象GEO
NORAD 67756·PAYLOAD·🇷🇺 Russia

打ち上げ Feb 12, 2026 から Baikonur Cosmodrome

Loading…

TLE

最新Source: Space-Track

元期: Sep 13, 2026, 19:24 UTC

1 67756U 26028A   26256.80886220 -.00000107  00000-0  00000-0 0  9993
2 67756   0.1831   8.8885 0002384 158.2688 192.8525  1.00270849  2137

AllMySatでELEKTRO-L 5をリアルタイム追跡

Download on the App Store